Tracking 35275 objects as of 8-Sep-2026
HD Live streaming from Space Station
objects crossing your sky now

LEMUR 2 JOHNNYTRUONG

Track LEMUR 2 JOHNNYTRUONG now!
10-day predictions
LEMUR 2 JOHNNYTRUONG is classified as:


NORAD ID: 59146
Int'l Code: 2024-043BA
Launch date: March 4, 2024
Source: United States (US)
Launch site: AIR FORCE WESTERN TEST RANGE (AFWTR)
Your satellite tracking list
Your tracking list is empty




NASA's NSSDC Master Catalog

Two Line Element Set (TLE):
1 59146U 24043BA  26250.70765253  .00046129  00000-0  43641-3 0  9991
2 59146  97.5432  47.9578 0003296 227.5783 132.5198 15.66851547140935
Source of the keplerian elements: AFSPC